Content
SEND FEEDBACK

Daily
Averages
Monthly
Summary
Philippines

BOOT, PHILIPPINES


Home > Asia > Philippines
Elevation: 36 feet     Latitude: 14 04N     Longitude: 121 03E

WEATHER
 
SELECT A DAY
Number of Records: 177,008;   Date Range: 7/1/96 - 10/20/14
 
SHARE

PRINT THIS DATA

[ ← Previous Day ]
WEATHER ALMANAC - FEBRUARY 8, 2014
[ Next Day → ]
[ °C ]   °F
Weather ElementAverageHighLow
Temperature84.1 °F93.2 °F (3:00 pm)77 °F (3:00 am)
Dewpoint71.2 °F73.4 °F (1:00 am)66.2 °F (4:00 pm)
Humidity65.2 %89 % (3:00 am)37 % (2:00 pm)
Barometer29.78 in29.86 in (8:00 am)29.71 in (2:00 pm)
Wind Speed5.8 mph9.2 mph (6:00 pm)
Weather ElementAverage
Visibility6.1 mi
Wind DirectionENE (78.7 °)

Weather ElementTotal
Precipitation---
Cooling Degree Days20.1 (Base 65)
Growing Degree Days35.1 (Base 50)
Averaged from 30 records on February 8, 2014
WEATHER CONDITIONS BREAKOUT
WIND DIRECTION BREAKOUT
WEATHER BY HOUR - FEBRUARY 8, 2014
[ °C ]   °F
Local TimeTemperatureDewpointHumidityBarometerVisibilityWind DirectionWind SpeedGust SpeedPrecipitationEventsConditions
1:00 AM78.8 °F73.4 °F83 %29.77 in6.2 miVariable1.2 mphPartly Cloudy
2:00 AM78.8 °F73.4 °F83 %29.74 in5.6 miVariable2.3 mphPartly Cloudy
3:00 AM77.0 °F73.4 °F89 %29.74 in5.6 miVariable2.3 mphPartly Cloudy
4:00 AM77.0 °F73.4 °F89 %29.77 in5.6 miVariable2.3 mphScattered Clouds
5:00 AM78.0 °F73.0 °F79 %29.78 in6.0 miESE (120°)4.5 mphHaze
5:00 AM78.8 °F71.6 °F78 %29.77 in5.6 miESE (120°)4.6 mphScattered Clouds
6:00 AM77.0 °F71.6 °F83 %29.80 in5.6 miVariable2.3 mphScattered Clouds
7:00 AM77.0 °F71.6 °F83 %29.83 in6.2 miEast (100°)3.5 mphPartly Cloudy
8:00 AM82.0 °F71.0 °F62 %29.85 in6.0 miESE (120°)4.5 mphHaze
8:00 AM82.4 °F71.6 °F70 %29.86 in6.2 miVariable5.8 mphPartly Cloudy
9:00 AM84.2 °F69.8 °F62 %29.86 in6.2 miVariable5.8 mphPartly Cloudy
10:00 AM86.0 °F68.0 °F55 %29.86 in6.2 miEast (90°)6.9 mphPartly Cloudy
11:00 AM88.0 °F69.0 °F45 %29.84 in6.0 miEast (100°)6.7 mphHaze
11:00 AM87.8 °F69.8 °F55 %29.83 in6.2 miEast (100°)3.5 mphPartly Cloudy
12:00 PM87.8 °F73.4 °F62 %29.80 in6.2 miWest (280°)8.1 mphPartly Cloudy
1:00 PM89.6 °F71.6 °F55 %29.74 in6.2 miVariable4.6 mphPartly Cloudy
2:00 PM92.0 °F69.0 °F37 %29.73 in6.0 miSE (140°)4.5 mphScattered Clouds
2:00 PM91.4 °F69.8 °F49 %29.71 in6.2 miVariable5.8 mphPartly Cloudy
3:00 PM93.2 °F68.0 °F44 %29.71 in6.2 miVariable6.9 mphPartly Cloudy
4:00 PM93.2 °F66.2 °F41 %29.71 in6.2 miVariable4.6 mphPartly Cloudy
5:00 PM90.0 °F69.0 °F41 %29.71 in6.0 miESE (110°)6.7 mphScattered Clouds
5:00 PM91.4 °F69.8 °F49 %29.71 in6.2 miESE (110°)8.1 mphPartly Cloudy
6:00 PM86.0 °F71.6 °F62 %29.74 in6.2 miESE (120°)9.2 mphPartly Cloudy
7:00 PM84.2 °F71.6 °F66 %29.77 in6.2 miESE (120°)9.2 mphPartly Cloudy
8:00 PM83.0 °F73.0 °F65 %29.80 in6.0 miESE (120°)8.9 mphScattered Clouds
8:00 PM82.4 °F73.4 °F74 %29.77 in6.2 miESE (120°)8.1 mphPartly Cloudy
9:00 PM82.4 °F73.4 °F74 %29.80 in6.2 miSE (130°)8.1 mphPartly Cloudy
10:00 PM80.6 °F73.4 °F79 %29.80 in6.2 miESE (120°)6.9 mphPartly Cloudy
11:00 PM81.0 °F72.0 °F69 %29.80 in6.0 miESE (120°)8.9 mphScattered Clouds
11:00 PM80.6 °F71.6 °F74 %29.80 in6.2 miESE (120°)8.1 mphPartly Cloudy
Hourly data recorded from RPLL, located miles away from Boot, Philippines







STORIES FROM OUR PARTNERS